Regional Weather Roundup
Issued by NWS Jackson, KY

Home | Current Version | Previous Version | Text Only | Print | Product List | Glossary Off
Versions: 1 2 3 4 5 6 7 8 9 10 11 12 13 14 15 16 17 18 19 20 21 22 23 24 25 26 27 28 29 30 31 32 33 34 35 36 37 38 39 40 41 42 43 44 45 46 47 48 49 50

000
ASUS43 KJKL 310319
RWRJKL

EAST KENTUCKY HOURLY WEATHER ROUNDUP
NATIONAL WEATHER SERVICE JACKSON KY
1100 PM EDT WED JUL 30 2014

NOTE: "FAIR" INDICATES FEW OR NO CLOUDS BELOW 12,000 FEET WITH
NO SIGNIFICANT WEATHER AND/OR OBSTRUCTIONS TO VISIBILITY.

* THESE REPORTS ARE NOT UNDER NWS QUALITY CONTROL AND MAY NOT
  REPORT WEATHER SUCH AS PRECIPITATION AND FOG.

KYZ079-080-083-085-087-088-110-112-115-119-120-310400
...EASTERN KENTUCKY...

CITY           SKY/WX    TMP DP  RH WIND       PRES   REMARKS
JACKSON        PTCLDY    67  58  72 CALM      30.11S
LONDON         PTCLDY    67  59  75 CALM      30.12R
SOMERSET*      CLEAR     63  63 100 CALM      30.11S
MONTICELLO*    MOCLDY    62  61  97 CALM      30.12S
WILLIAMSBURG*    N/A     63  63 100 CALM      30.12R
MIDDLESBORO*   MOCLDY    63  59  86 CALM      30.13S
HARLAN APT*    PTCLDY    61  61 100 MISG      30.14S
BLACK MTN*       N/A     57  54  88 VRB3        N/A
PIKEVILLE APT* CLEAR     63  57  82 N5        30.11S
BIG SANDY*     MOCLDY    64  59  82 E5        30.11F
MOREHEAD APT*  MOCLDY    64  57  77 VRB3      30.12S
ASHLAND*       CLOUDY    63  57  82 S3        30.07F
$$

KYZ035-036-041-042-044-050-067-078-099-310400
...CENTRAL KENTUCKY...

CITY           SKY/WX    TMP DP  RH WIND       PRES   REMARKS
MT STERLING*   CLEAR     61  59  94 SW3       30.10S
FLEMING/MASON* CLEAR     63  59  88 SE6       30.10S
DANVILLE*      PTCLDY    63  59  88 CALM      30.11R
RICHMOND*      PTCLDY    64  59  82 CALM      30.09S
LEXINGTON      CLEAR     67  57  70 S5        30.09S
FRANKFORT      CLEAR     64  59  83 CALM      30.07R
$$

KYZ091>093-OHZ055-061-077-WVZ005-015-034-035-042-310400
...SOUTHERN OHIO/WEST VIRGINIA...

CITY           SKY/WX    TMP DP  RH WIND       PRES   REMARKS
COVINGTON      MOCLDY    69  58  67 SW3       30.07S
COLUMBUS       PTCLDY    66  59  78 S6        30.05R
DAYTON         PTCLDY    66  59  78 SW7       30.06R
WILMINGTON     CLOUDY    63  60  90 S3        30.06S
HUNTINGTON     MOCLDY    61  60  97 SE5       30.10F
CHARLESTON     LGT RAIN  62  62 100 W5        30.11S
PINEVILLE*     CLEAR     60  60 100 MISG      30.18S
BECKLEY        PTCLDY    60  54  80 CALM      30.16S
BLUEFIELD      CLEAR     64  52  64 CALM      30.18S
$$

VAZ002-007-008-TNZ017-027-036-066-071-310400
...SOUTHWEST VIRGINIA/EAST TENNESSEE...

CITY           SKY/WX    TMP DP  RH WIND       PRES   REMARKS
WISE*          PTCLDY    59  57  94 CALM      30.19R
JONESVILLE*      N/A     63  61  94 CALM      30.15S
ABINGDON*      PTCLDY    62  58  87 CALM      30.16R
BRISTOL        MOCLDY    61  56  83 CALM      30.14R
KNOXVILLE      MOCLDY    64  60  87 NE5       30.09S
OAK RIDGE      MOCLDY    65  61  87 CALM      30.11S
CROSSVILLE     MOCLDY    64  60  87 CALM      30.14R
NASHVILLE      CLOUDY    69  57  65 CALM      30.09R
$$

...KEY TO REMARKS...
VSB - VISIBILITY IN MILES
WCI - WIND CHILL INDEX
HX  - HEAT INDEX

$$


USA.gov is the U.S. government's official web portal to all federal, state and local government web resources and services.